ATLAS 5 CENTAUR DEB, 44646

Orbit data source: Space-Track

ATLAS 5 CENTAUR DEB, 44646 is space debris in HEO originally from a launch on Wed, 17 Oct 2018 UTC launched from the Air Force Eastern Test Range (AFETR). Debris objects in space refer to the collection of defunct objects orbiting the Earth. Examples of debris include non-operational satellites, rocket bodies, and fragments generated from explosions, collisions, or faulty payload assembly.

Loading next visibility...
Identifier
44646, 2018-079G
Orbit
HEO
Country
Flag of USUS
Related business
Flag of USUnited Launch Alliance/Lockheed Martin (US)
Manufacturer
ULA Decatur
Mission
Spacecraft
Bus & Motor
Unknown
Mass
Unknown
Launch date (UTC)
2018-10-17 (7 years ago)
Launch vehicle
Unknown
Launch site
Air Force Eastern Test Range (AFETR)
Object type
Payload
Rocket body
Debris
Shape & HBR
Unknown shape, 1.1 m
Radar Cross Section
RCS unknown

Expand to show TLE details & history
Last TLE update: 1 week ago

TLE from 1 week ago
0 ATLAS 5 CENTAUR DEB
1 44646U 18079G   25294.21167961 -.00000113  00000-0  00000-0 0  9990
2 44646  13.5522  37.7371 4729801 306.5394  18.7144  1.85997749 47592
Epoch: 2025-10-21T05:04Z
TLE epoch observation values (Epoch: 2025-10-21T05:04:49.118Z)
Latitude
-0.00005°
Longitude
-68.4073°
Altitude
10,520.495 km
Speed
5.736 km/s
True Right ascension
02h 30m 48s
True Declination
0° 00' 00"
Sunlit
Object was in full shadow at epoch
Visualization orbit readout
Latitude
Unknown
Longitude
Unknown
Altitude
Unknown
Speed
Unknown
Apparent Right ascension
Unknown
Apparent Declination
Unknown
Sunlit
N/A
Visualization observer readout
Local Sidereal Time
18:16:23
Azimuth
Unknown
Elevation
Unknown
Doppler factor
Unknown
Orbital elements
Apogee altitude
34,764.623 km
Perigee altitude
8,342.397 km
Semi-major axis
27,931.647 km
Eccentricity
0.47298
Inclination
13.5522°
RAAN
37.7371°
Arg. of periapsis
306.5394°
True anomaly
53.83077°
Mean anomaly
18.7144°
Eccentric anomaly
33.78333°
Mean motion
0.46494 °/min
Orbital period
774.29 mins
BSTAR
0
Loading maneuver chart data...
Computing Atmospheric mass density...

Documentation

Showing up to 5 results
|